Wind_Speed
46 45 44 42 41 41 40 39 38 38 38 35 34 31 28 26 24 24 26 28 29 29 29 30 31 31 32 32 32 34 35 36 37 38 39 39 38 39
52 51 49 48 47 45 44 44 44 42 41 42 40 40 38 35 34 33 32 32 32 32 33 33 34 35 36 36 37 38 40 40 41 43 42 42 42 43
55 54 53 52 52 52 50 49 48 49 47 46 46 46 46 45 43 42 41 40 39 39 38 37 37 37 38 39 42 44 44 46 45 46 47 47 47 47
61 61 60 58 59 58 57 56 55 54 53 53 53 53 51 52 53 52 51 50 49 47 47 46 44 44 43 43 44 43 44 46 47 49 51 50 51 50
67 67 66 64 63 63 63 62 62 61 60 59 59 59 59 58 57 58 59 59 58 57 55 55 54 52 51 51 50 48 49 48 48 48 48 47 47 47
68 68 68 67 66 66 65 64 64 64 63 63 63 63 63 64 64 63 63 64 64 64 64 62 61 61 60 58 57 57 57 56 55 54 53 52 50 49
68 69 68 65 65 65 65 63 63 63 63 62 62 63 64 66 68 69 69 68 69 70 69 69 69 67 67 66 66 65 64 62 62 60 60 59 58 57
70 70 68 67 66 66 66 66 67 67 66 64 63 63 63 64 66 68 71 73 73 74 74 74 73 73 73 72 72 72 71 70 69 68 68 66 65 64
73 73 72 71 71 70 69 69 68 69 69 68 67 67 67 66 66 66 67 69 72 74 75 75 77 77 76 75 74 73 73 73 72 72 72 71 71 70
78 78 79 77 77 76 75 74 73 72 72 73 72 71 71 72 71 72 71 71 72 73 74 74 75 76 76 75 73 72 72 72 73 74 75 74 74 73
83 82 82 82 81 82 82 80 79 77 77 77 77 77 77 77 77 77 77 78 78 78 79 79 78 79 80 80 80 80 78 76 75 74 74 74 74 75
86 86 87 86 86 87 88 87 84 82 83 81 80 80 81 80 81 80 81 81 82 81 79 80 79 81 81 81 82 83 82 81 80 80 78 77 76 76
87 88 89 90 89 88 88 87 84 82 83 83 82 81 83 81 80 80 79 79 77 75 73 74 76 76 78 79 77 77 79 79 79 78 76 72 72 74
83 84 84 85 84 84 85 84 83 80 75 74 75 67 68 65 64 69 70 70 69 70 71 68 66 67 68 68 69 66 66 68 70 71 72 73 73 71
82 82 83 84 84 84 83 81 79 76 70 69 67 67 64 64 67 65 68 67 67 69 68 69 67 70 69 68 67 66 67 66 66 67 69 70 72 73
76 77 78 78 77 77 77 75 71 65 65 71 70 70 69 68 64 64 64 59 64 67 69 68 71 72 69 68 69 69 70 69 69 70 72 72 74 78
61 60 60 60 59 59 61 65 66 68 73 70 68 68 68 70 69 72 69 65 61 64 63 64 66 65 64 67 68 71 71 71 72 74 78 80 80 85
55 55 56 58 59 61 61 61 59 60 63 67 68 68 70 70 67 66 68 70 68 65 64 64 67 67 68 67 70 70 71 72 73 76 79 84 83 86
44 43 42 41 41 44 49 52 54 53 52 55 58 61 64 66 68 69 67 63 65 64 63 65 68 67 65 61 68 72 73 74 79 81 85 88 89 89
37 37 35 35 36 37 39 41 45 46 46 48 50 53 56 58 59 60 60 60 59 59 60 61 63 66 68 67 67 69 74 76 79 84 87 92 90 83
35 34 34 33 32 32 32 34 37 41 46 47 46 46 49 50 51 51 52 54 56 57 58 61 62 63 65 68 69 69 73 75 75 75 71 66 58 54
32 32 32 33 34 33 33 32 33 34 36 41 43 45 46 48 48 50 51 52 53 53 53 54 56 57 59 62 63 63 60 51 49 49 48 43 41 42
35 34 33 32 32 33 34 35 35 36 36 37 39 40 41 41 42 43 44 47 49 50 50 50 49 49 47 48 48 41 36 35 36 36 31 31 33 31
Wind_Direction
295 295 293 292 290 288 286 283 279 275 270 268 269 269 265 265 263 262 263 259 256 254 251 253 256 254 254 253 252 251 249 245 246 248 247 250 251 251
291 290 289 287 285 284 283 281 279 277 275 271 266 264 263 261 259 259 257 258 259 256 257 256 252 252 254 255 255 254 254 253 252 252 252 251 251 251
288 287 285 284 282 281 279 276 276 275 274 272 269 266 263 261 259 258 256 255 254 257 257 255 255 255 254 254 254 253 253 254 254 254 255 254 254 254
284 283 282 282 281 279 278 276 273 270 270 271 270 268 265 262 261 260 259 257 255 253 254 255 254 253 254 254 254 254 255 254 256 256 256 255 256 256
283 283 283 280 278 277 276 274 273 271 268 267 267 266 266 265 263 261 261 261 260 258 256 255 255 255 254 254 254 253 254 255 256 256 257 258 259 259
279 279 278 279 279 278 276 275 274 272 271 268 266 266 265 264 264 263 262 261 261 261 261 260 258 257 257 256 256 255 255 255 256 257 259 260 260 260
277 277 276 276 275 276 276 276 274 273 272 271 269 267 266 264 263 263 262 262 261 261 261 261 260 259 258 258 259 259 257 257 257 256 256 257 258 260
278 277 276 275 275 274 274 274 273 273 272 270 269 268 266 265 264 263 263 262 262 261 262 261 261 260 261 260 259 259 259 258 257 257 257 256 256 255
277 277 276 275 273 272 271 269 269 269 269 268 267 266 265 264 263 263 262 262 262 262 262 263 263 263 263 262 262 261 261 260 260 259 259 258 257 256
277 276 275 275 274 273 271 270 268 266 266 266 266 265 264 264 263 262 262 261 261 262 262 262 263 264 264 265 264 262 261 260 259 259 259 258 258 257
275 274 274 274 274 273 271 270 268 265 263 261 261 261 261 262 261 262 262 261 261 261 261 260 261 262 262 263 265 265 265 265 263 261 259 257 256 256
274 274 273 272 270 270 270 270 269 268 268 266 262 261 260 260 260 259 258 259 258 259 260 260 260 260 261 261 262 262 264 266 267 267 265 263 261 258
270 269 269 269 269 269 270 270 269 269 269 268 267 266 264 264 264 263 263 262 262 262 263 263 262 263 264 264 264 265 265 265 265 266 266 265 265 264
268 269 270 270 269 269 269 269 269 269 268 268 269 264 261 265 263 264 264 264 264 263 262 261 262 263 265 266 264 263 264 264 264 264 262 263 263 262
275 273 272 271 270 269 268 269 269 268 266 256 256 256 252 258 262 259 258 257 259 259 259 261 261 261 261 262 261 261 261 261 262 262 262 262 261 260
276 274 272 271 270 270 268 266 264 260 256 252 255 254 253 254 260 260 259 260 261 259 259 258 260 259 258 261 260 260 262 263 264 265 265 266 266 265
277 278 278 277 274 271 269 267 265 258 252 256 258 258 255 253 255 256 258 258 261 260 260 261 262 262 263 263 261 262 261 262 264 266 270 272 272 270
278 279 278 276 273 271 269 267 265 263 260 256 255 256 257 259 259 260 260 259 256 257 259 263 266 267 265 263 264 263 263 265 268 271 274 273 271 273
280 281 281 281 279 274 270 267 267 266 264 259 258 257 255 256 256 257 259 261 260 259 261 263 264 264 266 268 266 267 270 273 274 276 276 276 278 277
283 280 282 283 283 279 274 270 267 263 262 262 258 255 256 258 259 259 257 257 258 259 259 262 265 266 266 268 269 271 273 274 277 278 278 280 279 276
285 286 285 283 283 284 279 271 267 264 260 257 257 255 257 258 258 258 258 259 260 261 262 262 262 264 266 269 272 274 277 278 280 279 275 272 271 268
287 287 285 285 284 281 278 275 271 271 269 262 254 252 251 252 253 254 255 255 256 258 259 262 265 268 271 273 274 278 280 273 267 266 268 268 265 264
288 289 289 287 284 280 277 274 272 269 267 265 264 261 258 257 258 260 262 263 264 265 265 264 264 265 267 271 276 275 267 261 260 262 268 273 273 268
Height
5687 5685 5683 5681 5680 5678 5676 5674 5672 5671 5671 5672 5671 5672 5672 5671 5671 5671 5670 5671 5671 5671 5672 5672 5672 5674 5676 5678 5680 5682 5686 5687 5690 5693 5695 5698 5700 5702
5675 5674 5672 5670 5668 5667 5666 5665 5663 5662 5661 5660 5661 5661 5662 5663 5663 5663 5664 5663 5663 5663 5664 5665 5666 5667 5668 5669 5671 5673 5675 5677 5680 5683 5685 5687 5690 5692
5661 5659 5658 5657 5655 5654 5652 5652 5652 5651 5651 5649 5648 5649 5650 5650 5651 5651 5651 5653 5654 5654 5654 5655 5656 5657 5658 5660 5663 5665 5666 5669 5671 5673 5676 5677 5680 5682
5645 5642 5641 5641 5639 5639 5638 5637 5636 5635 5636 5636 5635 5634 5635 5636 5637 5637 5638 5637 5638 5640 5641 5643 5644 5646 5648 5649 5652 5652 5654 5656 5658 5661 5664 5666 5666 5668
5627 5626 5624 5622 5620 5620 5619 5619 5619 5619 5619 5619 5619 5619 5619 5619 5620 5621 5622 5623 5624 5624 5625 5626 5628 5630 5632 5635 5636 5638 5641 5643 5645 5647 5649 5651 5652 5655
5606 5605 5604 5603 5602 5600 5599 5598 5599 5599 5599 5600 5600 5601 5602 5601 5601 5602 5603 5604 5606 5607 5609 5610 5612 5614 5616 5618 5621 5623 5625 5627 5629 5632 5634 5636 5638 5641
5587 5585 5584 5584 5582 5581 5579 5578 5579 5579 5579 5579 5580 5581 5582 5583 5583 5583 5583 5584 5584 5586 5588 5590 5593 5595 5597 5600 5602 5604 5606 5609 5611 5613 5616 5619 5622 5625
5567 5565 5564 5563 5562 5561 5561 5559 5559 5558 5559 5558 5558 5559 5560 5562 5562 5563 5562 5563 5565 5564 5565 5566 5568 5571 5575 5578 5581 5583 5586 5588 5591 5595 5598 5601 5604 5607
5545 5543 5541 5540 5538 5538 5538 5538 5538 5538 5537 5535 5537 5537 5537 5538 5541 5542 5541 5541 5542 5543 5543 5544 5545 5546 5549 5552 5555 5558 5561 5565 5568 5571 5574 5578 5582 5586
5521 5519 5516 5515 5513 5512 5513 5514 5515 5515 5514 5512 5514 5514 5514 5514 5517 5517 5520 5520 5521 5521 5522 5523 5521 5522 5524 5525 5528 5532 5536 5540 5543 5546 5550 5554 5557 5561
5494 5492 5490 5488 5487 5483 5482 5485 5487 5489 5486 5487 5489 5489 5488 5489 5491 5493 5494 5495 5497 5498 5500 5501 5500 5501 5503 5503 5503 5504 5508 5511 5516 5521 5526 5530 5533 5537
5464 5462 5460 5459 5458 5455 5452 5454 5458 5459 5455 5457 5460 5462 5462 5464 5464 5466 5466 5470 5471 5473 5475 5476 5477 5478 5480 5482 5482 5484 5485 5485 5487 5491 5495 5500 5504 5510
5434 5432 5430 5428 5429 5428 5425 5426 5429 5429 5427 5426 5430 5432 5434 5437 5438 5440 5441 5443 5445 5450 5450 5450 5454 5455 5455 5459 5462 5463 5463 5465 5467 5468 5470 5472 5475 5480
5405 5402 5400 5399 5400 5400 5398 5399 5401 5400 5401 5402 5404 5408 5411 5413 5414 5415 5419 5422 5424 5426 5426 5429 5432 5432 5432 5437 5442 5442 5442 5444 5445 5447 5448 5450 5453 5456
5376 5377 5374 5371 5372 5372 5372 5371 5373 5373 5377 5379 5382 5385 5388 5391 5393 5394 5396 5398 5402 5404 5407 5408 5410 5410 5413 5416 5420 5422 5423 5424 5424 5424 5426 5429 5431 5433
5346 5345 5344 5344 5344 5343 5343 5345 5347 5350 5353 5355 5360 5364 5366 5368 5371 5374 5376 5377 5380 5384 5386 5385 5386 5389 5392 5395 5397 5403 5401 5404 5402 5401 5401 5405 5409 5410
5323 5322 5321 5320 5320 5319 5318 5319 5321 5324 5329 5333 5336 5340 5344 5345 5348 5352 5355 5357 5361 5362 5364 5365 5364 5366 5369 5372 5377 5379 5378 5380 5380 5379 5376 5379 5383 5381
5307 5305 5302 5300 5298 5298 5297 5298 5299 5301 5305 5308 5313 5317 5321 5324 5327 5330 5333 5336 5340 5342 5343 5343 5345 5344 5347 5352 5354 5355 5354 5356 5355 5354 5355 5353 5358 5356
5291 5290 5286 5284 5282 5280 5279 5279 5280 5281 5284 5287 5291 5295 5300 5303 5306 5310 5312 5316 5321 5322 5324 5324 5325 5325 5325 5331 5329 5330 5331 5333 5331 5329 5325 5324 5328 5333
5278 5276 5274 5272 5269 5267 5266 5265 5265 5266 5268 5270 5274 5277 5280 5283 5286 5290 5294 5297 5300 5302 5305 5306 5306 5305 5305 5308 5310 5311 5308 5309 5303 5301 5300 5297 5297 5296
5267 5265 5263 5261 5259 5257 5255 5254 5253 5253 5253 5256 5258 5260 5263 5265 5269 5272 5275 5278 5281 5283 5287 5288 5285 5284 5285 5285 5288 5291 5286 5282 5276 5275 5275 5272 5274 5274
5256 5255 5253 5251 5249 5247 5245 5243 5243 5242 5241 5242 5244 5246 5248 5251 5254 5257 5259 5261 5264 5266 5269 5269 5267 5266 5264 5263 5266 5267 5265 5260 5258 5257 5256 5257 5258 5258
5245 5244 5242 5240 5238 5235 5234 5233 5232 5232 5231 5231 5233 5234 5235 5237 5240 5242 5244 5245 5246 5248 5249 5250 5249 5248 5249 5248 5248 5248 5248 5247 5245 5244 5246 5245 5244 5245